H1 CPF 2 NER 2023 8 8 9 220 01 glonass143 H2 2007501 9143 46805 2023 8 8 0 0 0 2023 8 11 23 45 0 900 1 1 0 0 0 1 H9 10 0 60164 0.00000 0 9006827.482 13692618.970 19554150.626 10 0 60164 900.00000 0 9119839.070 15985693.321 17667809.837 10 0 60164 1800.00000 0 9378714.384 18012354.255 15438472.224 10 0 60164 2700.00000 0 9741356.135 19725406.915 12909322.958 10 0 60164 3600.00000 0 10158592.633 21088379.956 10129398.279 10 0 60164 4500.00000 0 10576420.703 22076870.037 7152640.228 10 0 60164 5400.00000 0 10938467.729 22679395.622 4036852.771 10 0 60164 6300.00000 0 11188568.635 22897723.960 842579.242 10 0 60164 7200.00000 0 11273348.223 22746657.210 -2368076.916 10 0 60164 8100.00000 0 11144698.710 22253286.480 -5532664.796 10 0 60164 9000.00000 0 10762046.384 21455745.184 -8589607.750 10 0 60164 9900.00000 0 10094309.996 20401514.400 -11479409.496 10 0 60164 10800.00000 0 9121466.502 19145352.115 -14145820.179 10 0 60164 11700.00000 0 7835656.355 17746934.177 -16536938.801 10 0 60164 12600.00000 0 6241780.150 16268307.108 -18606229.744 10 0 60164 13500.00000 0 4357560.044 14771260.732 -20313433.064 10 0 60164 14400.00000 0 2213062.109 13314731.857 -21625350.544 10 0 60164 15300.00000 0 -150301.394 11952348.633 -22516492.131 10 0 60164 16200.00000 0 -2681248.844 10730219.002 -22969570.347 10 0 60164 17100.00000 0 -5320524.112 9685056.021 -22975833.372 10 0 60164 18000.00000 0 -8003130.783 8842718.350 -22535230.723 10 0 60164 18900.00000 0 -10660812.953 8217226.466 -21656408.768 10 0 60164 19800.00000 0 -13224679.583 7810294.940 -20356536.543 10 0 60164 20700.00000 0 -15627863.395 7611399.272 -18660965.671 10 0 60164 21600.00000 0 -17808103.958 7598373.204 -16602731.264 10 0 60164 22500.00000 0 -19710147.840 7738510.101 -14221903.787 10 0 60164 23400.00000 0 -21287866.338 7990120.763 -11564804.714 10 0 60164 24300.00000 0 -22506003.223 8304480.850 -8683101.457 10 0 60164 25200.00000 0 -23341480.407 8628084.755 -5632799.393 10 0 60164 26100.00000 0 -23784208.036 8905109.942 -2473150.911 10 0 60164 27000.00000 0 -23837366.285 9079986.975 734497.069 10 0 60164 27900.00000 0 -23517148.315 9099966.183 3927894.412 10 0 60164 28800.00000 0 -22851976.390 8917572.203 7045094.555 10 0 60164 29700.00000 0 -21881225.193 8492842.515 10025653.244 10 0 60164 30600.00000 0 -20653506.807 7795255.362 12811796.062 10 0 60164 31500.00000 0 -19224589.995 6805265.626 15349532.327 10 0 60164 32400.00000 0 -17655041.352 5515383.734 17589694.289 10 0 60164 33300.00000 0 -16007687.183 3930751.834 19488882.193 10 0 60164 34200.00000 0 -14345002.031 2069192.378 21010297.678 10 0 60164 35100.00000 0 -12726532.494 -39273.830 22124450.294 10 0 60164 36000.00000 0 -11206463.179 -2353421.297 22809724.274 10 0 60164 36900.00000 0 -9831425.542 -4822285.188 23052795.279 10 0 60164 37800.00000 0 -8638640.172 -7387039.065 22848889.468 10 0 60164 38700.00000 0 -7654469.221 -9983208.693 22201880.012 10 0 60164 39600.00000 0 -6893438.780 -12543131.612 21124218.902 10 0 60164 40500.00000 0 -6357771.605 -14998561.916 19636704.821 10 0 60164 41400.00000 0 -6037449.533 -17283313.341 17768090.646 10 0 60164 42300.00000 0 -5910802.958 -19335831.751 15554537.128 10 0 60164 43200.00000 0 -5945602.812 -21101590.571 13038922.159 10 0 60164 44100.00000 0 -6100609.336 -22535209.581 10270017.880 10 0 60164 45000.00000 0 -6327512.611 -23602208.487 7301550.682 10 0 60164 45900.00000 0 -6573183.042 -24280321.568 4191161.667 10 0 60164 46800.00000 0 -6782136.511 -24560317.806 999287.439 10 0 60164 47700.00000 0 -6899109.490 -24446291.487 -2212016.931 10 0 60164 48600.00000 0 -6871634.281 -23955410.556 -5380289.466 10 0 60164 49500.00000 0 -6652504.266 -23117132.979 -8443883.135 10 0 60164 50400.00000 0 -6202023.432 -21971923.933 -11343173.255 10 0 60164 51300.00000 0 -5489943.436 -20569527.985 -14021726.038 10 0 60164 52200.00000 0 -4497004.719 -18966869.299 -16427404.595 10 0 60164 53100.00000 0 -3216014.970 -17225668.773 -18513390.086 10 0 60164 54000.00000 0 -1652417.992 -15409878.891 -20239097.564 10 0 60164 54900.00000 0 175672.374 -13583044.632 -21570968.424 10 0 60164 55800.00000 0 2237975.818 -11805701.714 -22483123.913 10 0 60164 56700.00000 0 4493066.482 -10132921.502 -22957867.177 10 0 60164 57600.00000 0 6889869.248 -8612105.470 -22986024.392 10 0 60164 58500.00000 0 9369569.400 -7281121.237 -22567118.715 10 0 60164 59400.00000 0 11867856.346 -6166857.564 -21709374.153 10 0 60164 60300.00000 0 14317408.136 -5284257.814 -20429549.641 10 0 60164 61200.00000 0 16650513.389 -4635871.162 -18752606.965 10 0 60164 62100.00000 0 18801721.592 -4211938.890 -16711219.249 10 0 60164 63000.00000 0 20710411.528 -3991010.602 -14345129.854 10 0 60164 63900.00000 0 22323171.017 -3941062.892 -11700374.365 10 0 60164 64800.00000 0 23595889.102 -4021071.854 -8828381.058 10 0 60164 65700.00000 0 24495473.899 -4182971.799 -5784967.531 10 0 60164 66600.00000 0 25001124.965 -4373916.364 -2629253.360 10 0 60164 67500.00000 0 25105107.872 -4538745.554 577489.842 10 0 60164 68400.00000 0 24812999.479 -4622553.776 3773028.346 10 0 60164 69300.00000 0 24143394.626 -4573249.817 6895372.854 10 0 60164 70200.00000 0 23127087.512 -4344000.275 9883978.157 10 0 60164 71100.00000 0 21805762.886 -3895453.055 12680912.729 10 0 60164 72000.00000 0 20230252.501 -3197646.990 15231975.779 10 0 60164 72900.00000 0 18458430.226 -2231526.905 17487740.618 10 0 60164 73800.00000 0 16552833.885 -990000.118 19404504.806 10 0 60164 74700.00000 0 14578112.994 521510.539 20945129.452 10 0 60164 75600.00000 0 12598408.397 2285041.103 22079752.297 10 0 60164 76500.00000 0 10674772.295 4270590.422 22786361.620 10 0 60164 77400.00000 0 8862735.273 6437133.940 23051220.535 10 0 60164 78300.00000 0 7210120.652 8734106.604 22869133.899 10 0 60164 79200.00000 0 5755196.203 11103294.884 22243552.822 10 0 60164 80100.00000 0 4525239.356 13481060.869 21186514.515 10 0 60164 81000.00000 0 3535574.995 15800807.597 19718418.068 10 0 60164 81900.00000 0 2789125.484 17995584.497 17867639.638 10 0 60164 82800.00000 0 2276491.432 20000725.602 15669993.406 10 0 60164 83700.00000 0 1976559.672 21756411.332 13168047.608 10 0 60164 84600.00000 0 1857612.880 23210047.357 10410307.738 10 0 60164 85500.00000 0 1878894.198 24318361.003 7450281.853 10 0 60165 0.00000 0 1992560.813 25049127.064 4345445.706 10 0 60165 900.00000 0 2145943.901 25382450.336 1156125.796 10 0 60165 1800.00000 0 2284018.767 25311549.375 -2055673.694 10 0 60165 2700.00000 0 2351980.152 24843009.052 -5227482.431 10 0 60165 3600.00000 0 2297812.537 23996489.552 -8297585.547 10 0 60165 4500.00000 0 2074745.403 22803904.015 -11206232.305 10 0 60165 5400.00000 0 1643488.081 21308099.098 -13896807.070 10 0 60165 6300.00000 0 974148.118 19561093.965 -16316938.890 10 0 60165 7200.00000 0 47750.515 17621951.953 -18419527.260 10 0 60165 8100.00000 0 -1142707.725 15554374.712 -20163663.565 10 0 60165 9000.00000 0 -2591713.610 13424120.191 -21515429.926 10 0 60165 9900.00000 0 -4281228.758 11296353.134 -22448559.814 10 0 60165 10800.00000 0 -6181215.987 9233039.284 -22944947.723 10 0 60165 11700.00000 0 -8250680.647 7290492.323 -22994998.308 10 0 60165 12600.00000 0 -10439183.636 5517175.894 -22597808.578 10 0 60165 13500.00000 0 -12688763.308 3951851.934 -21761180.052 10 0 60165 14400.00000 0 -14936186.247 2622151.795 -20501461.073 10 0 60165 15300.00000 0 -17115433.124 1543628.661 -18843222.696 10 0 60165 16200.00000 0 -19160315.987 719329.421 -16818774.799 10 0 60165 17100.00000 0 -21007117.855 139902.230 -14467532.034 10 0 60165 18000.00000 0 -22597144.516 -215766.494 -11835242.222 10 0 60165 18900.00000 0 -23879082.096 -379414.188 -8973092.405 10 0 60165 19800.00000 0 -24811062.173 -391812.921 -5936710.153 10 0 60165 20700.00000 0 -25362348.421 -300797.313 -2785079.859 10 0 60165 21600.00000 0 -25514574.729 -158994.039 420604.648 10 0 60165 22500.00000 0 -25262483.592 -21349.844 3618128.611 10 0 60165 23400.00000 0 -24614134.514 57436.790 6745462.644 10 0 60165 24300.00000 0 -23590574.454 25471.291 9741963.291 10 0 60165 25200.00000 0 -22224984.714 -163902.272 12549544.644 10 0 60165 26100.00000 0 -20561340.536 -549890.285 15113798.488 10 0 60165 27000.00000 0 -18652639.751 -1162355.867 17385041.772 10 0 60165 27900.00000 0 -16558774.537 -2020322.196 19319271.756 10 0 60165 28800.00000 0 -14344134.877 -3130936.126 20879011.121 10 0 60165 29700.00000 0 -12075043.092 -4488936.085 22034027.566 10 0 60165 30600.00000 0 -9817125.496 -6076647.380 22761914.802 10 0 60165 31500.00000 0 -7632729.569 -7864506.164 23048524.373 10 0 60165 32400.00000 0 -5578492.984 -9812091.558 22888240.409 10 0 60165 33300.00000 0 -3703164.402 -11869624.447 22284092.150 10 0 60165 34200.00000 0 -2045765.678 -13979872.120 21247701.834 10 0 60165 35100.00000 0 -634170.996 -16080381.048 19799068.424 10 0 60165 36000.00000 0 515838.596 -18105946.288 17966190.456 10 0 60165 36900.00000 0 1401006.322 -19991215.762 15784534.318 10 0 60165 37800.00000 0 2030498.837 -21673321.630 13296357.032 10 0 60165 38700.00000 0 2425277.868 -23094429.323 10549895.585 10 0 60165 39600.00000 0 2616970.856 -24204097.589 7598437.558 10 0 60165 40500.00000 0 2646288.312 -24961350.346 4499290.419 10 0 60165 41400.00000 0 2561054.870 -25336372.739 1312669.132 10 0 60165 42300.00000 0 2413937.622 -25311759.221 -1899476.255 10 0 60165 43200.00000 0 2259968.462 -24883260.214 -5074669.856 10 0 60165 44100.00000 0 2153966.166 -24059994.917 -8151131.859 10 0 60165 45000.00000 0 2147968.517 -22864120.477 -11068988.406 10 0 60165 45900.00000 0 2288784.461 -21329970.810 -13771444.960 10 0 60165 46800.00000 0 2615771.313 -19502700.892 -16205899.393 10 0 60165 47700.00000 0 3158932.448 -17436493.400 -18324972.308 10 0 60165 48600.00000 0 3937417.221 -15192403.065 -20087433.970 10 0 60165 49500.00000 0 4958487.701 -12835929.323 -21459009.479 10 0 60165 50400.00000 0 6216996.856 -10434419.220 -22413046.412 10 0 60165 51300.00000 0 7695401.089 -8054409.388 -22931032.068 10 0 60165 52200.00000 0 9364307.367 -5759018.195 -23002950.600 10 0 60165 53100.00000 0 11183532.543 -3605496.763 -22627473.432 10 0 60165 54000.00000 0 13103630.884 -1643040.585 -21811979.734 10 0 60165 54900.00000 0 15067826.147 89047.796 -20572406.961 10 0 60165 55800.00000 0 17014267.460 1562769.447 -18932934.743 10 0 60165 56700.00000 0 18878514.742 2762355.558 -16925508.576 10 0 60165 57600.00000 0 20596149.717 3684672.744 -14589212.839 10 0 60165 58500.00000 0 22105403.278 4339091.969 -11969505.566 10 0 60165 59400.00000 0 23349689.282 4746828.494 -9117330.098 10 0 60165 60300.00000 0 24279938.785 4939782.447 -6088121.088 10 0 60165 61200.00000 0 24856637.103 4958930.549 -2940724.505 10 0 60165 62100.00000 0 25051478.595 4852338.299 263747.090 10 0 60165 63000.00000 0 24848570.186 4672877.761 3463101.533 10 0 60165 63900.00000 0 24245133.589 4475748.285 6595272.959 10 0 60165 64800.00000 0 23251677.251 4315905.555 9599523.150 10 0 60165 65700.00000 0 21891631.242 4245507.946 12417615.071 10 0 60165 66600.00000 0 20200460.670 4311488.185 14994936.039 10 0 60165 67500.00000 0 18224294.880 4553352.794 17281549.234 10 0 60165 68400.00000 0 16018129.575 5001302.024 19233153.825 10 0 60165 69300.00000 0 13643676.589 5674749.477 20811935.885 10 0 60165 70200.00000 0 11166950.260 6581303.816 21987294.483 10 0 60165 71100.00000 0 8655690.010 7716255.746 22736429.759 10 0 60165 72000.00000 0 6176725.252 9062592.526 23044782.253 10 0 60165 72900.00000 0 3793390.902 10591540.399 22906315.480 10 0 60165 73800.00000 0 1563099.602 12263613.626 22323636.457 10 0 60165 74700.00000 0 -464829.682 14030127.755 21307951.625 10 0 60165 75600.00000 0 -2250997.518 15835115.517 19878858.524 10 0 60165 76500.00000 0 -3767329.291 17617566.886 18063976.370 10 0 60165 77400.00000 0 -4998002.034 19313901.007 15898421.678 10 0 60165 78300.00000 0 -5939854.640 20860567.717 13424137.890 10 0 60165 79200.00000 0 -6602264.670 22196670.386 10689090.897 10 0 60165 80100.00000 0 -7006497.125 23266500.390 7746345.066 10 0 60165 81000.00000 0 -7184552.808 24021876.613 4653037.040 10 0 60165 81900.00000 0 -7177565.005 24424191.091 1469266.819 10 0 60165 82800.00000 0 -7033812.533 24446073.801 -1743072.259 10 0 60165 83700.00000 0 -6806433.673 24072605.419 -4921501.541 10 0 60165 84600.00000 0 -6550938.456 23302025.769 -8004178.927 10 0 60165 85500.00000 0 -6322625.588 22145906.987 -10931109.924 10 0 60166 0.00000 0 -6174014.507 20628783.278 -13645323.120 10 0 60166 900.00000 0 -6152402.483 18787251.198 -16093987.716 10 0 60166 1800.00000 0 -6297651.558 16668579.864 -18229446.923 10 0 60166 2700.00000 0 -6640299.849 14328886.486 -20010151.399 10 0 60166 3600.00000 0 -7200078.332 11830955.541 -21401470.511 10 0 60166 4500.00000 0 -7984896.566 9241792.220 -22376367.002 10 0 60166 5400.00000 0 -8990340.881 6630012.583 -22915921.834 10 0 60166 6300.00000 0 -10199706.781 4063179.417 -23009699.261 10 0 60166 7200.00000 0 -11584564.632 1605194.764 -22655945.463 10 0 60166 8100.00000 0 -13105835.158 -686142.559 -21861617.276 10 0 60166 9000.00000 0 -14715329.788 -2761313.340 -20642240.933 10 0 60166 9900.00000 0 -16357691.291 -4580898.486 -19021603.916 10 0 60166 10800.00000 0 -17972653.324 -6116969.014 -17031286.248 10 0 60166 11700.00000 0 -19497524.099 -7353989.050 -14710040.594 10 0 60166 12600.00000 0 -20869789.928 -8289195.801 -12103033.464 10 0 60166 13500.00000 0 -22029729.385 -8932442.512 -9260962.500 10 0 60166 14400.00000 0 -22922928.365 -9305512.909 -6239067.240 10 0 60166 15300.00000 0 -23502590.470 -9440937.804 -3096052.869 10 0 60166 16200.00000 0 -23731545.837 -9380365.387 107051.841 10 0 60166 17100.00000 0 -23583874.216 -9172555.370 3308079.960 10 0 60166 18000.00000 0 -23046074.348 -8871082.779 6444931.907 10 0 60166 18900.00000 0 -22117730.830 -8531849.188 9456777.549 10 0 60166 19800.00000 0 -20811650.677 -8210507.001 12285231.606 10 0 60166 20700.00000 0 -19153464.003 -7959905.751 14875479.775 10 0 60166 21600.00000 0 -17180705.495 -7827668.161 17177334.194 10 0 60166 22500.00000 0 -14941414.836 -7853997.995 19146198.467 10 0 60166 23400.00000 0 -12492314.024 -8069811.856 20743924.279 10 0 60166 24300.00000 0 -9896636.834 -8495273.354 21939543.941 10 0 60166 25200.00000 0 -7221699.738 -9138791.321 22709865.479 10 0 60166 26100.00000 0 -4536314.134 -9996524.394 23039919.464 10 0 60166 27000.00000 0 -1908146.017 -11052413.364 22923249.420 10 0 60166 27900.00000 0 598868.672 -12278740.853 22362040.361 10 0 60166 28800.00000 0 2926947.039 -13637196.080 21367082.785 10 0 60166 29700.00000 0 5026621.192 -15080401.514 19957572.317 10 0 60166 30600.00000 0 6858550.341 -16553838.954 18160748.026 10 0 60166 31500.00000 0 8394908.413 -17998095.698 16011375.396 10 0 60166 32400.00000 0 9620289.986 -19351337.855 13551082.801 10 0 60166 33300.00000 0 10532097.063 -20551907.825 10827563.201 10 0 60166 34200.00000 0 11140390.806 -21540937.310 7893655.610 10 0 60166 35100.00000 0 11467214.633 -22264865.942 4806323.408 10 0 60166 36000.00000 0 11545417.403 -22677759.084 1625548.966 10 0 60166 36900.00000 0 11417026.558 -22743326.289 -1586833.923 10 0 60166 37800.00000 0 11131240.375 -22436554.224 -4768346.767 10 0 60166 38700.00000 0 10742124.804 -21744883.895 -7857088.157 10 0 60166 39600.00000 0 10306113.152 -20668881.170 -10792945.918 10 0 60166 40500.00000 0 9879415.408 -19222371.096 -13518775.131 10 0 60166 41400.00000 0 9515447.941 -17432029.206 -15981518.136 10 0 60166 42300.00000 0 9262393.430 -15336446.146 -18133243.894 10 0 60166 43200.00000 0 9160995.300 -12984704.259 -19932085.866 10 0 60166 44100.00000 0 9242680.790 -10434525.394 -21343059.803 10 0 60166 45000.00000 0 9528092.705 -7750067.278 -22338745.398 10 0 60166 45900.00000 0 10026092.359 -4999460.440 -22899818.653 10 0 60166 46800.00000 0 10733276.129 -2252188.367 -23015424.910 10 0 60166 47700.00000 0 11634026.208 423579.991 -22683385.661 10 0 60166 48600.00000 0 12701093.467 2963594.604 -21910235.565 10 0 60166 49500.00000 0 13896687.920 5309957.682 -20711089.399 10 0 60166 50400.00000 0 15174030.782 7413285.391 -19109341.880 10 0 60166 51300.00000 0 16479302.767 9234508.945 -17136206.561 10 0 60166 52200.00000 0 17753906.513 10746241.332 -14830103.000 10 0 60166 53100.00000 0 18936947.877 11933654.145 -12235904.385 10 0 60166 54000.00000 0 19967831.553 12794829.642 -9404060.465 10 0 60166 54900.00000 0 20788861.781 13340575.135 -6389613.079 10 0 60166 55800.00000 0 21347738.589 13593709.399 -3251123.702 10 0 60166 56700.00000 0 21599844.575 13587852.870 -49534.141 10 0 60166 57600.00000 0 21510226.029 13365774.186 3153017.245 10 0 60166 58500.00000 0 21055185.131 12977364.092 6294400.547 10 0 60166 59400.00000 0 20223416.398 12477323.185 9313697.040 10 0 60166 60300.00000 0 19016639.666 11922661.729 12152376.372 10 0 60166 61200.00000 0 17449703.023 11370117.358 14755425.567 10 0 60166 62100.00000 0 15550151.192 10873599.599 17072408.400 10 0 60166 63000.00000 0 13357277.050 10481768.705 19058435.273 10 0 60166 63900.00000 0 10920695.291 10235850.406 20675025.530 10 0 60166 64800.00000 0 8298496.886 10167778.131 21890846.399 10 0 60166 65700.00000 0 5555060.040 10298740.447 22682315.092 10 0 60166 66600.00000 0 2758607.436 10638194.600 23034053.094 10 0 60166 67500.00000 0 -21390.241 11183387.660 22939184.356 10 0 60166 68400.00000 0 -2716858.225 11919405.810 22399471.822 10 0 60166 69300.00000 0 -5263700.746 12819750.434 21425289.467 10 0 60166 70200.00000 0 -7604217.416 13847417.876 20035429.909 10 0 60166 71100.00000 0 -9689253.709 14956438.759 18256750.494 10 0 60166 72000.00000 0 -11479997.002 16093813.498 16123663.671 10 0 60166 72900.00000 0 -12949344.044 17201763.874 13677480.394 10 0 60166 73800.00000 0 -14082783.242 18220206.937 10965618.105 10 0 60166 74700.00000 0 -14878755.091 19089347.711 8040687.710 10 0 60166 75600.00000 0 -15348475.813 19752281.673 4959476.506 10 0 60166 76500.00000 0 -15515231.740 20157496.987 1781846.407 10 0 60166 77400.00000 0 -15413174.303 20261170.212 -1430431.135 10 0 60166 78300.00000 0 -15085666.755 20029157.510 -4614880.518 10 0 60166 79200.00000 0 -14583252.904 19438595.968 -7709543.642 10 0 60166 80100.00000 0 -13961334.365 18479045.961 -10654193.147 10 0 60166 81000.00000 0 -13277655.383 17153124.928 -13391512.681 10 0 60166 81900.00000 0 -12589702.533 15476604.416 -15868220.315 10 0 60166 82800.00000 0 -11952130.256 13477965.166 -18036112.359 10 0 60166 83700.00000 0 -11414321.977 11197427.908 -19853006.678 10 0 60166 84600.00000 0 -11018190.653 8685499.823 -21283566.758 10 0 60166 85500.00000 0 -10796312.247 6001097.020 -22299990.327 10 0 60167 0.00000 0 -10770471.250 3209321.437 -22882549.246 10 0 60167 900.00000 0 -10950679.799 378983.214 -23019970.631 10 0 60167 1800.00000 0 -11334711.661 -2420024.647 -22709651.524 10 0 60167 2700.00000 0 -11908170.465 -5119395.217 -21957704.424 10 0 60167 3600.00000 0 -12645089.069 -7655005.805 -20778832.342 10 0 60167 4500.00000 0 -13509034.375 -9969339.268 -19196036.591 10 0 60167 5400.00000 0 -14454670.657 -12013628.232 -17240163.284 10 0 60167 6300.00000 0 -15429715.175 -13749634.012 -14949297.595 10 0 60167 7200.00000 0 -16377203.292 -15150987.301 -12368017.840 10 0 60167 8100.00000 0 -17237967.357 -16204036.173 -9546524.100 10 0 60167 9000.00000 0 -17953224.600 -16908167.647 -6539658.546 10 0 60167 9900.00000 0 -18467164.753 -17275591.049 -3405836.819 10 0 60167 10800.00000 0 -18729428.177 -17330594.072 -205911.482 10 0 60167 11700.00000 0 -18697369.960 -17108304.422 2998010.097 10 0 60167 12600.00000 0 -18338014.557 -16653010.636 6143770.238 10 0 60167 13500.00000 0 -17629618.635 -16016113.948 9170364.304 10 0 60167 14400.00000 0 -16562776.321 -15253798.358 12019119.637 10 0 60167 15300.00000 0 -15141020.268 -14424517.561 14634827.375 10 0 60167 16200.00000 0 -13380893.079 -13586404.737 16966805.666 10 0 60167 17100.00000 0 -11311485.580 -12794714.097 18969874.301 10 0 60167 18000.00000 0 -8973460.619 -12099401.397 20605222.643 10 0 60167 18900.00000 0 -6417602.165 -11542944.591 21841154.903 10 0 60167 19800.00000 0 -3702948.971 -11158495.583 22653699.192 10 0 60167 20700.00000 0 -894589.080 -10968440.124 23027069.235 10 0 60167 21600.00000 0 1938794.716 -10983425.983 22953970.357 10 0 60167 22500.00000 0 4727528.214 -11201900.056 22435743.994 10 0 60167 23400.00000 0 7403591.412 -11610174.079 21482347.791 10 0 60167 24300.00000 0 9903198.082 -12183016.728 20112171.208 10 0 60167 25200.00000 0 12169203.465 -12884748.026 18351689.360 10 0 60167 26100.00000 0 14153240.930 -13670791.027 16234960.803 10 0 60167 27000.00000 0 15817499.426 -14489616.511 13802977.833 10 0 60167 27900.00000 0 17136068.011 -15284999.692 11102880.746 10 0 60167 28800.00000 0 18095791.483 -15998494.486 8187050.309 10 0 60167 29700.00000 0 18696601.356 -16572021.262 5112095.327 10 0 60167 30600.00000 0 18951308.277 -16950458.694 1937754.504 10 0 60167 31500.00000 0 18884864.615 -17084129.691 -1274266.053 10 0 60167 32400.00000 0 18533128.406 -16931075.371 -4461496.799 10 0 60167 33300.00000 0 17941181.041 -16459019.714 -7561926.180 10 0 60167 34200.00000 0 17161270.190 -15646940.386 -10515214.843 10 0 60167 35100.00000 0 16250465.489 -14486177.818 -13263878.103 10 0 60167 36000.00000 0 15268126.820 -12981034.175 -15754412.698 10 0 60167 36900.00000 0 14273292.991 -11148835.539 -17938345.018 10 0 60167 37800.00000 0 13322101.931 -9019453.434 -19773179.808 10 0 60167 38700.00000 0 12465352.008 -6634304.724 -21223230.461 10 0 60167 39600.00000 0 11746307.885 -4044871.047 -22260314.593 10 0 60167 40500.00000 0 11198843.701 -1310799.106 -22864301.445 10 0 60167 41400.00000 0 10846001.838 1502339.246 -23023500.764 10 0 60167 42300.00000 0 10699027.750 4325534.031 -22734885.941 10 0 60167 43200.00000 0 10756921.027 7088967.949 -22004147.556 10 0 60167 44100.00000 0 11006520.976 9724681.815 -20845576.686 10 0 60167 45000.00000 0 11423122.377 12169164.111 -19281780.685 10 0 60167 45900.00000 0 11971594.731 14365757.461 -17343237.271 10 0 60167 46800.00000 0 12607957.042 16266782.676 -15067695.889 10 0 60167 47700.00000 0 13281341.086 17835292.766 -12499438.240 10 0 60167 48600.00000 0 13936259.720 19046385.004 -9688412.592 10 0 60167 49500.00000 0 14515084.017 19888017.609 -6689258.935 10 0 60167 50400.00000 0 14960624.275 20361298.401 -3560244.218 10 0 60167 51300.00000 0 15218705.622 20480234.960 -362128.647 10 0 60167 52200.00000 0 15240629.324 20270958.336 2843014.699 10 0 60167 53100.00000 0 14985415.768 19770454.401 5993003.729 10 0 60167 54000.00000 0 14421734.447 19024857.434 9026751.224 10 0 60167 54900.00000 0 13529439.511 18087378.675 11885445.422 10 0 60167 55800.00000 0 12300646.093 17015957.637 14513684.579 10 0 60167 56700.00000 0 10740301.879 15870735.232 16860543.966 10 0 60167 57600.00000 0 8866229.443 14711454.834 18880555.234 10 0 60167 58500.00000 0 6708636.873 13594900.143 20534579.910 10 0 60167 59400.00000 0 4309116.186 12572476.743 21790560.990 10 0 60167 60300.00000 0 1719170.037 11688038.087 22624138.899 10 0 60167 61200.00000 0 -1001673.307 10976046.297 23019120.603 10 0 60167 62100.00000 0 -3788079.989 10460144.148 22967793.331 10 0 60167 63000.00000 0 -6571375.033 10152197.575 22471077.044 10 0 60167 63900.00000 0 -9282150.619 10051848.588 21538512.565 10 0 60167 64800.00000 0 -11852911.443 10146597.366 20188085.155 10 0 60167 65700.00000 0 -14220648.661 10412410.402 18445886.145 10 0 60167 66600.00000 0 -16329236.511 10814829.690 16345618.173 10 0 60167 67500.00000 0 -18131552.606 11310536.985 13927952.465 10 0 60167 68400.00000 0 -19591233.991 11849307.943 11239749.456 10 0 60167 69300.00000 0 -20683995.764 12376274.301 8333156.889 10 0 60167 70200.00000 0 -21398457.015 12834398.959 5264602.105 10 0 60167 71100.00000 0 -21736439.320 13167059.326 2093697.641 10 0 60167 72000.00000 0 -21712724.994 13320629.306 -1117918.644 10 0 60167 72900.00000 0 -21354285.174 13246949.877 -4307786.075 10 0 60167 73800.00000 0 -20699010.257 12905582.579 -7413842.321 10 0 60167 74700.00000 0 -19793996.441 12265749.150 -10375638.589 10 0 60167 75600.00000 0 -18693461.086 11307873.729 -13135524.234 10 0 60167 76500.00000 0 -17456375.458 10024660.836 -15639776.819 10 0 60167 77400.00000 0 -16143915.449 8421662.078 -17839654.715 10 0 60167 78300.00000 0 -14816838.541 6517306.255 -19692351.153 10 0 60167 79200.00000 0 -13532898.229 4342390.329 -21161830.710 10 0 60167 80100.00000 0 -12344405.326 1939051.586 -22219531.821 10 0 60167 81000.00000 0 -11296039.071 -640736.756 -22844921.677 10 0 60167 81900.00000 0 -10423000.090 -3337084.264 -23025893.018 10 0 60167 82800.00000 0 -9749582.583 -6084436.611 -22758995.457 10 0 60167 83700.00000 0 -9288225.148 -8814069.954 -22049497.280 10 0 60167 84600.00000 0 -9039079.303 -11456722.784 -20911276.968 10 0 60167 85500.00000 0 -8990112.860 -13945255.951 -19366546.965 99